Flag for Poland Weather past 2 weeks in Zabrze, Poland

Now
59 °F

Fog.


Feels Like: 59 °F
Forecast: 63 / 83 °F
Wind: 1 mph from North

Location: Katowice Airport

Current Time: Jul 29, 2014 at 6:22:32 AM

Latest Report: Jul 29, 2014 at 6:00 AM


Visibility: 1 mi

Pressure: 29.86 "Hg

Humidity: 94%

Dew point: 57 °F

Location of ZabrzeLocation

Historic Weather in Zabrze — Graph

°F

Zabrze temperature yesterday

Maximum temperature yesterday: 84 °F (at 2:00 PM)
Minimum temperature yesterday: 63 °F (at 3:30 AM)
Average temperature yesterday: 72 °F

Past Weeks' High & Low Weather Summary

 TemperatureHumidityPressure
High88 °F (Jul 20, 3:00 PM)100% (Jul 15, 2:30 AM)30.15 "Hg (Jul 15, 2:30 AM)
Low55 °F (Jul 15, 4:00 AM)30% (Jul 14, 4:00 PM)29.80 "Hg (Jul 21, 11:30 AM)
Average71 °F71%29.99 "Hg
* Reported Jul 14 5:00 AM — Jul 29 5:30 AM, Zabrze, Weather by CustomWeather, © 2014

Note: Actual official high and low records may vary slightly from our data, if they occured in-between our weather recording intervals... More about our weather records

Advertising

Zabrze weather history for previous 24 hours

 ConditionsComfort  
Time TempWeatherWind HumidityBarometerVisibility
5:30 AM
Jul 29
59 °FFog.5 mph100%29.86 "Hg1 mi
5:00 AM59 °FFog.3 mph100%29.86 "Hg2 mi
4:30 AM59 °FFog.2 mph100%29.86 "Hg2 mi
4:00 AM61 °FFog.No wind100%29.86 "Hg2 mi
3:30 AM61 °FFog.1 mph100%29.86 "Hg2 mi
3:00 AM61 °FFog.3 mph94%29.86 "Hg2 mi
2:30 AM63 °FFog.2 mph94%29.86 "Hg2 mi
2:00 AM64 °FClear.5 mph94%29.86 "Hg4 mi
1:30 AM63 °FClear.5 mph94%29.86 "Hg10 mi
1:00 AM66 °FClear.5 mph83%29.86 "Hg10 mi
12:30 AM66 °FClear.5 mph83%29.86 "Hg10 mi
12:00 AM66 °FClear.2 mph88%29.86 "Hg10 mi
11:30 PM
Jul 28
66 °FClear.No wind88%29.86 "Hg10 mi
11:00 PM66 °FClear.3 mph88%29.89 "Hg10 mi
10:30 PM68 °FPassing clouds.3 mph83%29.89 "HgN/A
10:00 PM70 °FClear.5 mph83%29.89 "Hg10 mi
9:30 PM68 °FSunny.3 mph88%29.89 "Hg10 mi
9:00 PM68 °FSunny.6 mph83%29.89 "Hg10 mi
8:30 PM70 °FPassing clouds.3 mph83%29.86 "HgN/A
8:00 PM70 °FSunny.5 mph83%29.86 "Hg10 mi
7:30 PM70 °FSunny.2 mph83%29.86 "Hg10 mi
7:00 PM70 °FSunny.No wind83%29.86 "Hg10 mi
6:30 PM70 °FScattered clouds.9 mph83%29.86 "HgN/A
6:00 PM73 °FThundershowers. Scattered clouds.10 mph74%29.86 "HgN/A
5:30 PM81 °FThundershowers. Scattered clouds.5 mph58%29.83 "HgN/A
5:00 PM82 °FPassing clouds.9 mph48%29.83 "HgN/A
4:30 PM82 °FPassing clouds.12 mph51%29.86 "HgN/A
4:00 PM84 °FScattered clouds.15 mph48%29.86 "HgN/A
3:30 PM84 °FThundershowers. Scattered clouds.12 mph45%29.86 "HgN/A
3:00 PM82 °FPassing clouds.10 mph51%29.86 "HgN/A
2:30 PM84 °FPassing clouds.8 mph48%29.86 "HgN/A
2:00 PM84 °FPassing clouds.6 mph48%29.89 "HgN/A
1:30 PM82 °FPassing clouds.6 mph48%29.89 "HgN/A
1:00 PM82 °FPassing clouds.5 mph58%29.92 "HgN/A
12:30 PM82 °FSunny.5 mph45%29.92 "Hg10 mi
12:00 PM81 °FPassing clouds.3 mph51%29.92 "HgN/A
11:30 AM79 °FPassing clouds.5 mph58%29.92 "HgN/A
11:00 AM79 °FSunny.5 mph54%29.92 "Hg10 mi
10:30 AM77 °FSunny.2 mph61%29.92 "Hg10 mi
10:00 AM75 °FPassing clouds.3 mph69%29.95 "HgN/A
9:30 AM73 °FSunny.3 mph69%29.95 "Hg10 mi
9:00 AM73 °FSunny.2 mph69%29.95 "Hg10 mi
8:30 AM72 °FSunny.2 mph78%29.95 "Hg10 mi
8:00 AM70 °FClear.1 mph78%29.95 "Hg5 mi
7:30 AM68 °FClear.2 mph83%29.92 "Hg5 mi
7:00 AM66 °FClear.2 mph88%29.92 "Hg5 mi
6:30 AM64 °FClear.6 mph94%29.92 "Hg4 mi
6:00 AM63 °FFog.No wind94%29.92 "Hg3 mi
Weather by CustomWeather, © 2014

See weather overviewHow to use our weather pages